This is the latest recevied weather packets stored in our database for station/object KE2HEH. If no packets are shown the sender has not sent any weather packets the latest 1 day(s).
| Time | Temp. | Humidity | Pressure | Rain* | Wind** | Luminosity | Snow |
|---|---|---|---|---|---|---|---|
| 1778077550 | 12.22° C | 95% | 1010.5 hPa | 0 mm | - | 225 W/m² | - |
| 1778076644 | 12.22° C | 95% | 1010.9 hPa | 0 mm | - | 279 W/m² | - |
| 1778075431 | 12.22° C | 95% | 1011.1 hPa | 0 mm | - | 394 W/m² | - |
| 1778074824 | 12.22° C | 96% | 1011.1 hPa | 0 mm | - | 311 W/m² | - |
| 1778074218 | 12.22° C | 96% | 1011.2 hPa | 0 mm | - | 464 W/m² | - |
| 1778073915 | 12.22° C | 96% | 1011 hPa | 0 mm | - | 382 W/m² | - |
| 1778073006 | 12.22° C | 96% | 1011.1 hPa | 0 mm | - | 486 W/m² | - |
| 1778070889 | 11.67° C | 96% | 1011 hPa | 0 mm | - | 127 W/m² | - |
| 1778070283 | 11.67° C | 96% | 1011.2 hPa | 0 mm | - | 218 W/m² | - |
| 1778067863 | 11.67° C | 97% | 1011.5 hPa | 0 mm | - | 213 W/m² | - |
| 1778067259 | 11.67° C | 97% | 1011.4 hPa | 0 mm | - | 168 W/m² | - |
| 1778066955 | 11.67° C | 97% | 1011.2 hPa | 0 mm | - | 197 W/m² | - |
| 1778066653 | 11.67° C | 97% | 1010.9 hPa | 0 mm | - | 238 W/m² | - |
| 1778066350 | 11.67° C | 97% | 1011 hPa | 0 mm | - | 215 W/m² | - |
| 1778065745 | 11.67° C | 97% | 1011.1 hPa | 0 mm | - | 111 W/m² | - |
| 1778064835 | 11.67° C | 96% | 1011.2 hPa | 0 mm | - | 55 W/m² | - |
| 1778062717 | 11.67° C | 96% | 1011 hPa | 0 mm | - | 25 W/m² | - |
| 1778061204 | 11.67° C | 96% | 1010.8 hPa | 0 mm | - | 5 W/m² | - |
| 1778060901 | 11.67° C | 96% | 1010.8 hPa | 0 mm | - | 2 W/m² | - |
| 1778060600 | 11.67° C | 96% | 1010.8 hPa | 0 mm | - | 0 W/m² | - |
| 1778059994 | 11.67° C | 96% | 1011 hPa | 0 mm | - | 0 W/m² | - |
| 1778059087 | 11.67° C | 96% | 1010.9 hPa | 0 mm | - | 0 W/m² | - |
| 1778058179 | 12.22° C | 95% | 1011.1 hPa | 0 mm | - | 0 W/m² | - |
| 1778057572 | 12.22° C | 95% | 1011.2 hPa | 0 mm | - | 0 W/m² | - |
| 1778056965 | 12.22° C | 95% | 1011.1 hPa | 0 mm | - | 0 W/m² | - |
* Rain latest hour (hover to see other rain measurements)
** Current wind speed in m/s (hover to see current wind gust speed)